Location: Beuerbach
(48.1459°N, 10.9174°E)
Time: 08:17:48
(UTC+00:00)

Cosmos 1455 - Pass Details

Date: 23 May 2024
Orbit: 445 x 461 km, 82.5° (Epoch: 15 June)

Event Time Altitude Azimuth Distance (km) Brightness Sun altitude
Rises 00:25:42 0° 355° (N) 2,460 6.8 -19.3°
Reaches altitude 10° 00:27:49 10° 0° (N) 1,585 5.7 -19.2°
Maximum altitude 00:31:11 50° 77° (ENE) 580 2.6 -19.0°
Enters shadow 00:32:13 36° 130° (SE) 737 2.8 -19.0°
